Location: Ahausen
(50.4985°N, 8.2722°E)
Time: 08:17:20
(UTC+00:00)

YUBILEINY - Pass Details

Date: 08 July 2022
Orbit: 1478 x 1509 km, 82.5° (Epoch: 07 August)

Event Time Altitude Azimuth Distance (km) Brightness Sun altitude
Rises 00:02:11 0° 347° (NNW) 4,654 ? -16.7°
Reaches altitude 10° 00:07:15 10° 12° (NNE) 3,663 ? -16.6°
Maximum altitude 00:11:30 14° 42° (NE) 3,342 ? -16.5°
Drops below altitude 10° 00:15:42 10° 71° (ENE) 3,645 ? -16.4°
Sets 00:20:40 0° 95° (E) 4,614 ? -16.2°
